OSCAR 7 (AO-7) (7530 NORAD) Tracking and Keplerian Element Data

This shows tracking and keplerian element data for the satellite.

Feedback or suggestion? Click here.




ElementValue
Catalog7530
NameOSCAR 7 (AO-7)
Epoch Orbit19706
Epoch Day324.82876154
Epoch Year2022
RAAN305.2999
Inclination101.9255
Eccentricity0.0012444
Argument of Perigee101.6371
Mean Anonmoly320.5591
Mean Motion12.53658789
Decay Rate-2.1E-07
L11 07530U 74089B 22324.82876154 -.00000021 00000+0 15488-3 0 9999
L22 07530 101.9255 305.2999 0012444 101.6371 320.5591 12.53658789197063



Live tracking and technical data element details for OSCAR 7 (AO-7) (NORAD 7530). OSCAR 7 (AO-7) can be tracked NOW for your location showing map with azimuth and elevation plus other details from your city location.







IsCatalogInMostPopularTable: catalog: 7530, numindb: 2472
Update: records affected: 1



GetName: 7530 OSCAR 7 (AO-7)

Hit Count: updated at: Sun, 04 Dec 2022 22:50:40 GMT